SKYNET 5B

Last updated on Thu Oct 23 2025 00:02:53 GMT+0000 (Coordinated Universal Time)

1 32294U 07056B 25295.48326351 .00000152 00000+0 00000+0 0 9999 2 32294 4.6439 76.3408 0003717 136.5265 17.4018 1.00274815 65811
UTC large
Height (km)
Speed (km/s)
/
Latitude / Longitude
Inclination (degrees)
Orbital Period (minutes)
Azimuth
Elevation
Range (km)
Doppler Factor

Next 0 passes for location: London (51.5072 / 0.1276)

Sorry there are no passes over London.